Wind_Speed
14 15 15 15 15 15 15 16 16 17 17 16 15 15 16 16 17 18 18 17 17 17 17 18 18 19 20 21 21 20 20 20 19 19 19 19 19 19 19 19 19 19 19 20 19 19 19 19 19 19 19 20 20 21 21 22 22 23 23 23 23 24 24 24 25 26 27 27 27
14 15 15 16 16 16 16 16 17 17 17 17 17 17 17 17 18 18 19 19 18 18 18 19 19 20 21 21 22 21 21 20 20 19 19 19 19 20 20 20 20 20 20 20 20 20 20 19 19 19 19 19 20 21 21 22 23 23 24 24 24 24 23 24 25 26 27 27 27
14 15 15 15 16 16 16 17 17 17 16 16 18 18 19 19 19 19 19 20 20 20 19 19 20 21 21 22 22 22 21 21 21 20 20 19 19 19 19 19 20 20 20 21 21 21 21 20 19 19 19 19 20 20 21 22 22 23 24 24 24 23 23 23 24 24 24 25 26
14 14 15 15 15 15 15 16 17 18 18 19 20 21 21 21 21 20 20 21 21 20 20 20 20 21 22 23 23 23 23 22 22 21 21 20 20 20 19 20 20 20 21 21 22 23 22 22 20 19 19 20 21 21 22 22 22 22 23 23 23 23 23 23 23 23 23 23 24
13 14 15 15 16 16 17 18 19 19 20 21 22 22 22 21 20 20 20 20 20 21 21 22 22 23 23 24 24 24 24 24 23 22 22 21 21 20 20 20 20 21 21 22 23 23 23 22 21 20 20 21 21 22 22 22 22 22 22 22 22 22 23 23 23 23 23 23 23
13 14 15 16 17 17 18 19 20 20 21 22 22 22 21 20 19 19 19 20 21 22 23 24 24 24 24 24 24 25 25 25 24 23 22 22 22 21 21 21 21 22 22 23 24 24 23 22 21 21 21 21 22 23 23 23 23 23 23 23 23 22 23 23 23 23 23 24 24
13 14 15 16 17 17 18 19 20 21 22 22 22 21 20 20 20 20 21 22 22 23 23 24 24 24 24 24 25 25 25 25 25 24 23 22 22 22 22 22 23 23 24 24 24 23 22 21 21 21 21 21 22 23 24 23 23 23 24 24 24 23 23 23 23 23 23 25 26
14 14 15 16 17 18 19 20 20 21 22 22 21 21 21 22 22 23 23 23 22 22 23 23 23 24 24 24 25 25 25 25 25 24 23 23 22 22 23 23 23 23 24 24 23 22 21 20 20 20 21 21 22 22 23 23 23 23 24 25 25 24 23 24 24 24 24 25 27
15 15 16 17 18 19 20 21 21 22 22 22 22 22 23 23 23 23 23 22 22 23 24 24 24 24 24 24 24 24 24 24 24 24 23 23 23 23 23 23 23 23 23 23 22 21 20 20 20 20 21 21 21 22 22 22 23 23 24 25 25 25 25 24 24 24 25 26 27
16 17 18 19 19 20 21 22 22 23 23 23 23 23 23 23 23 22 21 22 23 24 24 24 24 24 24 24 24 23 23 22 22 22 23 23 23 23 24 24 24 24 24 23 22 21 20 20 20 21 22 22 23 23 24 23 23 24 25 25 25 25 26 26 26 26 26 26 27
17 18 19 20 21 22 22 23 23 23 23 23 23 23 23 22 22 21 22 23 23 23 23 23 23 23 23 23 23 22 22 21 21 21 21 22 23 23 23 24 24 24 24 24 23 22 21 20 21 22 23 23 23 24 24 24 24 25 26 25 25 26 27 27 27 27 27 27 28
18 19 20 21 22 23 23 23 23 23 23 23 23 23 22 22 22 22 22 22 22 22 22 22 22 22 22 22 21 21 21 20 20 21 21 22 22 23 23 23 24 24 24 24 23 22 21 21 22 23 24 24 24 23 24 24 24 24 25 26 26 27 28 28 28 27 27 27 28
19 20 21 22 23 23 23 23 23 23 22 22 22 22 22 22 22 22 21 21 21 21 21 21 21 21 21 20 20 20 20 21 21 21 21 22 22 22 22 23 23 23 24 24 23 22 21 22 22 23 24 25 24 24 24 24 24 25 26 26 27 27 28 29 29 28 27 27 28
20 21 21 22 22 22 22 22 22 21 21 22 22 22 22 21 21 21 20 20 20 21 21 21 21 20 20 20 20 21 21 21 21 22 22 22 22 22 23 23 23 24 24 24 23 23 23 23 24 24 24 25 26 26 26 26 26 26 27 28 28 29 29 29 29 28 28 28 28
20 20 21 21 21 21 20 20 20 20 21 21 21 21 21 21 21 20 20 20 21 21 21 21 20 20 20 21 21 21 21 21 21 22 22 22 23 23 23 23 23 24 25 25 25 25 24 25 25 25 25 26 27 28 28 27 28 28 29 29 30 30 30 30 29 28 28 28 28
20 20 20 20 20 20 20 20 20 20 20 21 21 21 21 21 21 21 21 21 21 21 21 21 21 21 22 22 22 22 21 21 21 21 22 22 23 23 23 24 24 25 27 28 28 27 26 26 26 25 26 27 29 29 30 30 30 30 31 31 31 31 31 31 30 30 29 29 29
20 20 20 20 20 20 21 21 21 21 21 22 22 22 21 21 21 21 21 21 21 21 22 22 22 22 22 22 22 21 21 21 21 21 22 23 23 24 24 25 26 28 29 30 30 29 28 27 27 26 27 28 30 31 32 33 33 33 33 33 32 32 32 32 32 31 31 31 30
20 20 20 20 20 21 22 22 22 22 23 23 23 22 22 21 22 22 22 22 22 22 22 23 23 22 22 22 22 21 21 22 22 23 23 24 24 25 26 27 28 29 30 30 30 30 30 29 28 28 28 28 29 31 32 33 34 34 34 34 34 34 34 34 33 33 32 31 31
20 20 20 20 21 22 22 23 23 23 23 23 22 22 22 22 22 22 23 22 22 22 22 23 23 23 22 23 23 22 22 22 23 24 25 25 25 26 26 27 28 29 30 31 32 32 31 31 30 29 29 29 30 31 32 32 33 33 33 33 33 34 34 34 33 33 32 31 31
20 20 20 20 21 22 23 23 23 23 23 23 22 23 23 23 23 22 22 22 22 22 22 23 23 23 23 23 24 24 23 23 24 25 25 26 26 27 27 28 29 30 31 32 33 33 32 32 31 31 30 31 31 31 31 31 31 31 31 31 32 32 32 32 32 31 31 31 31
20 20 20 21 22 23 23 23 23 23 22 22 23 23 23 23 22 22 22 22 23 23 23 23 23 23 24 24 24 25 25 24 24 25 26 26 27 27 28 29 29 30 31 32 32 33 33 32 32 31 31 31 31 31 32 31 31 30 30 30 30 30 30 29 29 28 29 30 31
21 21 21 22 22 22 23 22 22 22 22 22 22 22 22 22 22 22 22 23 23 23 23 23 23 24 24 25 25 26 26 25 25 25 26 26 26 27 27 27 28 30 31 32 32 33 33 32 32 32 32 32 33 34 34 33 32 31 31 30 30 30 30 29 29 28 28 29 30
21 21 22 22 22 22 22 22 22 21 21 21 21 21 22 22 22 22 23 23 23 23 23 24 24 24 25 25 26 26 26 26 26 26 26 26 26 27 27 27 28 29 30 31 31 31 31 31 31 31 31 32 33 33 33 32 32 32 32 32 32 32 31 30 29 29 29 29 29
21 21 21 21 21 21 21 21 21 21 21 21 21 21 22 22 22 23 23 23 23 24 24 24 24 25 25 25 26 26 26 26 26 27 27 26 26 27 27 27 27 27 28 28 28 28 27 27 28 28 29 30 30 30 30 31 31 32 32 32 32 32 31 30 29 29 29 29 29
21 21 21 21 21 21 21 21 20 20 20 21 21 21 21 22 22 23 23 24 24 25 25 25 25 25 25 25 25 25 25 25 26 27 27 27 27 27 27 27 26 26 26 27 27 27 26 26 26 27 28 29 30 31 32 32 32 32 31 31 31 30 30 30 30 30 30 30 30
21 21 21 20 20 20 20 20 20 20 20 21 21 21 21 22 22 23 23 24 25 25 25 25 25 25 25 24 24 24 24 24 24 26 27 27 28 28 28 27 26 26 27 28 28 27 27 27 28 28 29 30 31 31 31 31 31 31 31 30 30 30 30 30 29 29 29 29 30
21 20 20 20 20 20 20 20 20 20 20 20 21 21 22 22 23 23 24 24 25 25 25 25 24 24 24 23 24 24 24 24 25 26 27 28 29 29 28 27 26 27 28 28 28 28 28 29 29 29 29 30 30 31 31 31 31 31 30 30 30 30 30 30 30 30 30 30 30
21 20 20 20 20 20 20 20 20 20 20 21 21 22 22 23 23 24 24 25 25 25 25 24 23 23 23 23 23 24 25 25 26 26 27 27 27 27 27 27 27 28 28 28 28 29 29 30 30 30 30 30 30 31 32 31 31 30 29 28 28 28 28 28 27 27 28 28 28
21 20 20 19 19 20 20 20 20 20 21 21 22 22 23 23 24 24 24 25 25 25 24 24 23 23 23 23 24 25 26 26 26 26 26 26 27 27 28 28 28 28 28 29 29 30 30 31 31 31 31 30 29 29 28 28 28 28 27 27 27 27 27 27 27 27 28 29 29
20 19 19 19 20 20 20 20 20 21 21 22 22 23 23 24 24 24 25 25 25 25 24 24 24 24 24 25 26 26 26 26 26 26 26 27 28 28 29 29 29 29 30 30 30 30 31 31 31 31 31 30 29 29 29 29 28 28 27 27 27 27 27 28 29 28 28 29 30
20 19 19 20 20 20 20 21 21 21 22 22 23 23 24 24 24 25 25 25 25 25 25 25 25 26 26 26 26 26 27 27 26 26 26 27 28 29 30 30 31 31 31 30 30 30 31 31 31 31 30 30 29 29 29 29 28 28 28 27 27 28 28 28 29 29 29 29 30
19 19 20 20 20 21 21 21 21 22 22 23 23 24 24 25 25 25 25 25 26 26 26 26 26 26 27 27 27 27 27 27 27 27 27 27 28 30 31 31 31 31 30 30 30 30 30 30 31 31 30 30 30 30 30 29 29 29 29 29 29 29 29 29 29 30 30 30 30
20 20 20 20 21 21 21 21 22 22 23 23 24 24 24 25 26 26 26 25 25 25 26 26 26 26 27 27 27 27 27 27 27 27 28 28 29 30 31 31 31 30 29 29 30 30 30 31 31 31 31 31 30 30 29 29 28 28 28 28 29 29 29 29 29 30 30 30 30
20 20 20 20 21 21 22 22 23 23 24 24 24 25 25 25 26 26 26 26 25 26 26 26 26 26 26 26 27 27 28 28 27 28 28 29 29 30 31 31 30 30 30 30 30 31 31 31 31 31 31 31 30 29 29 28 27 27 27 28 28 29 28 29 30 31 31 30 30
20 20 20 21 21 22 23 23 23 24 24 25 25 25 25 25 26 26 26 26 26 26 26 26 26 26 26 26 26 27 27 28 29 29 29 29 30 31 31 32 31 31 30 31 31 31 31 31 31 31 30 30 29 28 27 27 27 27 28 28 28 28 28 29 29 30 30 29 29
19 20 21 22 23 23 23 23 24 24 25 25 25 26 26 26 26 26 26 26 27 27 27 27 27 26 26 27 27 27 27 28 29 29 29 29 30 31 32 32 32 31 31 30 30 31 31 31 31 30 30 29 28 27 26 26 26 27 27 27 28 28 28 28 29 29 29 28 27
20 21 22 23 23 23 24 24 24 25 25 25 26 26 26 27 27 26 26 26 26 27 27 27 27 27 27 27 27 28 28 28 29 29 30 30 30 30 31 32 32 31 31 30 30 30 30 30 30 30 29 28 28 27 26 25 25 25 26 27 27 28 27 27 27 28 28 28 27
21 21 22 23 24 24 24 24 24 25 25 26 26 26 26 26 26 26 26 25 25 26 27 28 27 27 28 28 28 29 28 28 28 28 29 30 30 30 31 32 32 31 30 30 30 30 30 30 30 30 29 28 28 27 26 25 25 25 26 26 27 27 27 26 26 26 27 26 25
22 22 22 22 23 24 24 24 25 25 26 26 26 26 26 26 26 26 26 25 25 26 27 28 28 28 28 28 29 29 29 28 28 28 28 29 29 29 30 31 31 31 30 30 30 30 30 30 30 29 29 29 28 27 26 25 25 25 26 26 26 26 26 25 25 25 25 24 24
22 22 22 23 23 24 24 25 25 25 25 26 26 26 26 26 26 26 26 26 26 26 27 28 29 29 28 28 29 29 29 29 28 28 28 29 29 29 30 30 31 31 30 30 29 29 29 29 29 29 29 29 28 27 26 25 25 25 24 24 23 23 23 23 23 23 23 23 24
22 22 22 23 23 23 24 25 25 25 25 25 26 26 26 26 26 26 26 26 27 27 27 28 28 29 28 28 28 29 29 29 29 28 28 28 29 29 29 29 29 29 29 29 29 29 29 29 29 29 28 28 28 28 26 25 23 23 23 22 22 22 22 23 23 23 23 23 23
Wind_Direction
306 306 306 306 307 308 309 310 312 314 314 312 309 307 305 305 304 303 303 303 302 302 302 302 303 305 307 309 310 309 307 304 299 294 287 281 277 273 271 269 268 267 267 267 266 265 263 260 256 254 252 252 253 253 253 253 252 252 251 250 250 250 249 248 247 247 246 245 246
310 309 309 310 312 313 315 315 316 316 316 314 310 307 306 305 304 303 303 303 303 303 303 304 305 306 308 310 311 311 310 308 305 300 294 287 282 278 275 272 271 269 269 268 266 264 263 261 258 255 254 253 253 254 254 254 254 253 253 252 252 252 252 250 250 249 249 248 248
314 314 315 317 318 319 319 318 317 316 314 311 309 308 307 306 305 305 304 305 306 306 305 305 306 307 309 310 312 312 312 311 309 305 301 295 289 284 279 276 275 274 273 271 270 267 265 263 260 257 255 254 254 254 255 255 254 254 253 253 253 253 252 252 252 251 251 250 249
319 320 320 322 322 322 320 318 317 315 313 311 310 310 309 309 308 307 307 307 308 307 305 305 306 307 308 309 311 312 312 312 310 308 305 301 296 290 285 281 278 276 276 275 273 271 268 265 261 258 256 256 255 255 255 256 254 254 254 254 254 253 253 253 252 252 251 251 250
323 322 322 322 322 321 319 318 317 315 314 313 312 312 311 310 309 308 308 307 306 305 305 305 305 306 307 308 309 310 311 311 310 308 306 303 300 296 291 285 281 278 277 275 274 273 270 267 263 260 258 257 257 256 256 256 256 256 255 255 254 253 253 253 252 252 252 251 250
323 322 322 321 321 320 319 318 318 316 315 314 313 312 311 309 308 307 306 305 304 305 305 305 305 306 306 307 308 309 309 309 308 306 305 302 300 297 292 287 283 280 278 277 275 274 272 268 264 262 260 260 259 258 257 257 257 257 257 257 255 254 253 253 253 252 251 251 250
323 322 322 321 321 321 320 319 318 317 316 314 313 311 309 308 307 306 305 304 305 305 305 305 305 306 306 306 306 307 307 307 306 305 302 300 298 295 292 289 286 284 281 280 278 276 273 269 266 264 263 261 261 261 260 258 258 258 258 258 257 256 255 254 253 253 252 251 251
324 324 324 323 323 323 322 320 319 318 316 314 312 311 310 308 308 307 307 306 305 304 305 305 305 305 305 305 305 305 305 305 304 303 301 298 296 294 292 290 288 286 284 283 281 278 274 271 267 265 264 263 263 263 262 261 259 258 258 258 259 258 257 256 255 254 253 252 251
325 325 325 325 325 324 323 321 320 318 316 314 312 311 311 310 309 309 307 305 304 304 305 305 305 305 305 304 304 303 303 302 302 300 299 297 295 293 292 290 288 287 285 284 282 279 276 273 269 267 266 265 265 265 265 264 262 260 260 260 261 261 260 258 257 256 255 254 253
325 325 326 326 325 325 323 322 320 319 317 314 313 312 311 310 309 307 305 304 304 305 305 305 305 305 304 303 302 302 301 300 299 298 297 295 294 292 291 289 288 287 286 285 283 281 278 275 271 269 268 267 267 268 268 267 265 264 263 262 263 263 262 261 259 259 258 257 256
325 325 325 325 325 325 324 322 321 319 317 315 314 313 311 310 308 306 305 305 305 304 304 304 304 303 302 302 301 300 299 297 296 295 294 293 292 291 290 289 288 287 286 286 284 283 280 277 274 273 271 270 270 270 270 269 267 266 265 264 263 264 263 263 261 261 260 260 260
325 325 325 325 326 325 324 323 321 319 317 315 314 313 311 309 307 306 306 305 304 303 303 303 303 302 301 300 300 299 297 296 294 293 291 291 290 290 289 288 287 287 287 286 285 283 281 279 277 276 275 274 273 272 271 271 269 268 267 266 265 265 264 264 263 262 262 262 261
324 324 324 325 325 325 324 322 320 318 317 315 313 312 311 309 308 307 306 304 303 302 302 302 302 301 300 299 298 297 296 295 294 292 290 289 289 288 288 287 287 286 286 286 285 283 281 279 278 277 276 276 274 273 272 271 271 269 269 268 267 266 265 265 265 264 263 263 262
323 323 323 323 324 323 322 320 318 316 314 313 312 310 309 308 307 306 305 303 302 302 302 302 302 301 299 298 297 296 295 294 293 292 290 289 289 288 287 287 286 286 286 285 284 283 281 280 279 278 277 277 276 275 274 273 271 270 270 269 268 268 267 267 267 266 265 264 263
322 321 321 321 321 320 318 317 315 313 312 310 309 309 308 307 306 305 304 303 302 302 302 302 301 300 298 298 297 296 295 294 293 292 290 289 289 288 287 287 287 286 285 285 285 284 282 281 280 279 278 277 277 276 276 274 273 271 270 270 269 269 269 268 268 267 266 265 265
320 319 319 319 318 316 315 314 312 311 309 308 307 307 306 306 305 304 304 303 303 303 302 301 300 300 300 299 298 297 296 294 293 292 291 290 289 289 288 287 287 286 286 286 286 285 284 282 281 280 279 278 278 277 277 276 274 273 272 271 270 270 270 269 269 268 267 266 266
318 318 317 316 315 314 313 312 311 309 308 307 307 306 306 305 305 304 304 303 303 303 302 301 300 300 300 299 298 297 296 295 293 292 291 290 290 289 289 288 287 287 287 287 287 286 285 284 283 281 280 279 279 278 278 277 277 275 274 273 272 271 270 270 269 269 268 267 266
317 316 316 315 313 312 311 311 310 309 308 307 307 306 305 305 304 304 304 303 303 302 301 301 300 300 299 298 298 297 295 295 293 292 291 290 290 289 288 288 288 288 288 288 287 286 286 285 284 283 282 280 279 279 279 278 278 277 276 275 274 273 272 271 271 270 269 268 267
315 315 314 313 312 311 310 310 309 309 308 307 307 306 305 305 305 304 304 304 303 302 301 301 300 300 298 297 297 296 294 293 292 291 291 290 290 289 288 288 288 288 288 288 287 287 286 286 285 284 283 281 280 280 279 278 278 277 276 276 275 274 274 273 272 271 270 269 268
314 313 313 311 311 310 310 309 309 308 308 307 307 306 306 306 305 305 304 303 303 303 301 301 300 299 298 297 297 295 294 292 292 291 290 290 289 288 288 288 288 288 288 288 287 287 287 286 286 285 283 282 281 280 279 279 278 277 276 276 275 275 274 274 273 272 271 269 268
312 312 311 310 310 309 309 308 308 308 307 307 307 306 306 306 306 305 304 303 303 303 302 300 299 298 298 297 296 295 294 293 291 290 290 289 288 288 288 288 288 288 288 287 287 287 287 286 285 285 283 282 281 280 279 279 279 278 277 276 275 275 274 274 273 272 270 269 268
311 311 310 310 309 308 308 308 308 307 307 307 306 306 306 306 305 304 304 304 303 303 301 300 299 298 297 296 295 295 294 292 291 289 289 288 288 288 288 288 288 288 287 287 287 287 287 286 285 285 284 283 282 282 281 280 279 278 278 277 276 275 275 274 273 271 270 269 268
311 310 310 309 309 308 308 308 307 307 307 306 306 306 306 305 305 305 304 304 303 302 301 300 298 297 296 295 294 294 293 292 291 289 288 288 288 288 288 288 288 287 287 287 287 287 287 287 286 286 285 285 285 284 283 281 279 278 278 278 277 276 275 274 273 272 270 269 268
310 310 309 309 308 308 307 307 307 306 306 305 305 305 305 305 305 304 304 303 302 301 300 299 298 297 296 295 294 293 292 291 291 290 289 289 288 289 289 289 288 287 286 286 286 286 286 286 287 287 287 286 286 285 284 282 280 278 277 277 277 277 276 275 274 274 273 271 270
309 309 308 308 307 307 306 306 305 304 304 304 304 304 304 304 304 304 303 302 301 300 300 299 298 297 296 295 294 292 291 291 290 290 291 291 290 290 290 290 289 287 286 285 285 285 284 284 285 286 287 287 286 285 284 282 281 279 278 277 277 277 277 276 276 276 275 274 273
309 308 308 307 306 306 305 304 303 303 303 303 303 303 303 303 303 302 302 301 301 300 300 299 298 297 296 295 294 293 292 291 291 291 292 292 292 291 291 290 289 287 286 286 286 285 285 285 285 286 286 286 286 286 285 284 283 281 280 278 278 278 278 277 277 276 276 274 273
309 308 307 307 306 304 303 303 302 302 302 302 302 302 302 302 302 302 301 300 300 300 300 299 298 297 296 295 294 293 293 293 293 292 292 292 291 291 291 290 289 287 287 287 287 287 287 287 288 287 287 287 287 286 286 285 284 283 281 280 279 279 278 276 276 277 276 275 273
309 308 307 306 304 303 302 302 302 301 301 302 302 302 302 302 302 301 300 300 301 301 301 300 299 298 298 296 295 294 294 294 294 293 293 292 291 291 291 291 290 289 289 289 289 289 289 290 289 289 289 288 287 287 286 285 284 283 281 279 278 277 277 276 276 277 277 277 276
310 308 306 305 303 302 302 302 302 301 302 302 302 303 303 302 302 301 301 301 301 302 302 301 300 299 298 296 296 295 295 295 294 294 294 293 292 292 291 291 291 290 290 290 290 291 291 291 290 290 290 289 288 287 285 284 283 282 281 279 279 279 278 277 277 278 279 280 280
311 308 305 303 302 302 302 302 302 302 303 303 303 303 303 302 302 302 302 302 302 302 301 300 300 298 297 296 296 296 296 296 296 295 295 294 294 293 293 292 292 291 291 291 291 291 291 291 291 291 291 290 289 287 285 284 283 282 281 280 280 279 279 279 279 278 278 279 281
310 307 305 303 303 302 302 302 303 303 304 304 304 303 303 303 303 303 303 303 303 302 301 300 299 297 297 297 297 297 296 297 297 296 295 295 294 294 294 293 293 292 292 292 292 292 292 292 292 292 292 291 290 288 287 285 283 282 281 281 280 279 279 278 279 279 279 278 278
309 307 305 304 303 303 303 303 304 305 305 304 304 304 303 303 303 303 303 303 303 302 302 301 300 299 299 299 299 298 297 297 297 296 296 295 295 295 294 294 294 293 293 293 294 293 293 293 293 293 293 292 291 289 288 286 284 283 282 282 281 280 279 279 278 279 279 278 277
309 307 305 304 303 303 304 304 305 306 306 305 305 304 304 304 304 304 304 304 303 303 302 302 301 300 300 300 300 299 299 298 297 297 296 296 296 295 295 295 294 294 294 295 295 295 294 294 294 294 293 293 292 290 289 287 285 283 283 283 282 282 281 280 279 278 278 277 277
309 307 305 304 304 304 305 305 306 306 306 306 305 305 304 304 305 305 305 304 304 303 302 301 300 300 299 299 299 299 299 298 298 298 297 297 297 296 296 295 295 295 295 296 296 295 295 295 294 294 294 294 293 291 289 288 286 285 283 283 283 283 282 280 278 277 276 276 277
309 307 306 305 305 305 306 306 307 307 306 306 305 305 305 305 305 305 305 305 304 303 301 300 300 299 299 298 298 298 298 299 299 299 299 298 298 297 297 296 295 295 296 296 296 296 295 295 294 294 294 294 293 292 289 288 286 285 285 284 284 283 281 280 278 277 277 277 277
308 307 306 306 306 306 306 306 306 306 306 305 305 305 305 305 305 304 304 305 304 303 301 301 300 300 300 300 299 299 299 299 300 300 300 299 299 298 298 297 297 297 297 297 296 296 295 295 295 295 295 295 293 292 290 288 286 286 285 285 284 283 282 281 279 278 278 277 277
307 307 307 306 306 306 306 306 306 305 305 304 305 305 305 305 305 304 304 305 304 303 302 302 301 301 301 301 301 300 300 300 300 300 300 300 300 299 298 298 297 298 297 297 296 296 295 295 295 295 295 295 293 292 289 287 285 284 285 284 284 283 282 281 279 279 280 279 277
308 307 306 305 305 305 305 305 304 304 304 304 304 304 304 304 304 304 304 304 303 302 302 302 301 301 301 302 301 301 300 300 300 300 300 300 300 299 298 298 298 297 297 296 296 295 295 295 295 295 295 294 293 291 289 286 284 283 283 282 283 282 281 279 278 279 281 280 279
307 306 305 304 304 304 304 303 303 303 303 303 303 303 303 303 303 303 303 303 302 302 301 301 301 301 302 302 302 302 302 302 301 301 300 300 299 299 298 297 297 297 296 296 295 295 295 295 295 295 295 294 292 290 288 285 284 283 282 280 280 280 280 279 280 281 282 281 281
306 305 304 303 303 303 302 302 301 301 302 302 302 302 302 302 302 302 302 302 302 302 301 301 301 301 302 303 303 303 303 302 302 301 300 300 299 298 298 297 296 296 296 296 295 295 294 294 295 295 295 294 292 290 288 286 284 282 281 280 278 279 281 283 284 285 284 283 282
305 304 303 302 302 301 301 301 301 301 301 301 301 301 302 302 302 302 302 303 302 302 302 301 301 302 303 303 304 303 303 303 302 302 301 300 299 299 298 297 296 297 296 296 296 295 295 294 294 295 295 294 293 291 290 287 285 284 283 283 283 284 286 288 288 287 286 284 282
Height
832 831 830 830 829 828 828 827 827 826 825 825 824 823 822 821 820 819 818 817 816 815 814 812 811 810 809 808 807 806 805 804 803 802 801 800 800 799 798 797 797 797 796 795 795 794 794 794 793 793 792 791 791 790 789 789 788 787 787 786 785 784 783 783 782 781 781 780 780
831 830 830 829 828 828 827 827 826 825 824 823 823 822 821 820 819 818 817 816 815 813 812 811 810 809 807 807 806 804 803 802 801 800 799 798 798 797 797 796 795 795 794 794 793 793 792 792 792 791 790 789 788 787 787 786 786 785 784 783 782 782 781 780 779 778 778 777 777
830 829 829 828 827 827 826 826 825 824 823 823 822 821 820 819 818 817 815 814 813 812 811 810 808 807 806 805 804 803 802 801 800 798 797 797 796 795 795 794 793 793 792 792 791 791 790 790 790 789 788 787 786 785 784 783 783 782 781 780 780 779 778 777 776 776 776 775 774
829 829 828 827 827 826 826 825 824 823 822 822 820 819 818 817 816 815 814 813 812 811 810 808 807 806 805 804 802 802 800 799 798 797 796 795 794 793 793 792 792 791 791 790 789 789 788 788 787 787 786 785 784 783 782 781 781 780 779 778 777 777 776 774 774 773 773 772 771
828 828 827 827 826 826 825 824 823 822 821 820 819 818 817 816 815 814 812 812 810 809 808 807 806 805 803 802 801 800 799 798 797 796 794 793 792 792 791 791 790 789 789 788 787 787 786 786 785 784 783 782 781 780 779 778 778 777 776 775 774 774 773 772 771 771 770 769 768
828 827 827 826 825 824 823 823 822 821 820 819 817 817 816 815 814 812 812 810 809 808 807 806 804 803 802 801 800 798 797 796 795 794 793 792 791 790 790 789 788 787 787 786 785 784 784 783 783 782 780 779 778 777 776 776 775 775 773 772 772 771 770 769 768 767 767 766 765
827 826 826 825 824 823 822 822 821 820 818 817 817 815 815 813 812 812 810 809 808 807 805 804 803 802 801 799 798 797 796 795 794 793 792 791 790 789 788 787 786 785 785 784 783 782 782 781 780 779 778 777 776 774 773 773 772 772 771 770 768 768 767 766 765 765 764 763 762
826 825 825 824 823 822 821 820 819 818 817 816 815 814 813 812 811 810 808 807 806 805 804 802 801 800 799 798 797 795 794 793 792 791 790 789 788 787 786 785 784 783 782 782 781 780 780 779 778 777 775 774 773 772 771 771 770 769 768 767 766 765 765 763 763 762 761 760 759
825 824 823 822 822 821 820 819 818 817 816 815 814 813 812 811 809 808 807 806 805 803 802 801 800 798 797 796 795 794 792 791 790 789 788 787 786 785 784 783 782 781 781 780 779 778 777 777 776 774 773 772 771 769 768 768 767 767 765 764 763 762 762 761 760 759 758 757 757
824 823 822 821 821 820 819 817 817 816 815 813 812 811 810 809 808 807 805 804 802 801 800 799 798 797 795 794 793 792 791 790 788 787 786 785 784 783 782 781 780 779 778 777 777 776 776 775 773 772 771 770 768 767 766 766 765 764 763 762 761 760 759 758 758 757 756 755 754
822 822 821 820 819 818 817 816 815 814 813 812 811 809 808 807 806 805 804 802 801 799 798 797 796 795 793 792 791 790 789 788 787 786 784 783 782 781 780 779 778 777 776 775 775 774 773 772 771 769 768 767 766 765 764 763 762 762 760 759 758 757 756 755 755 755 754 752 752
821 821 820 819 818 817 816 815 813 812 811 810 809 808 807 806 804 803 802 800 799 798 797 795 794 793 792 791 789 788 787 786 785 784 782 781 780 779 778 777 776 775 774 773 772 772 771 769 768 767 766 765 764 763 762 761 760 759 757 756 756 755 753 752 752 752 751 750 749
820 819 818 817 817 815 814 813 812 811 810 808 807 806 805 804 802 801 800 799 797 796 795 794 792 791 790 789 787 787 785 784 783 782 781 779 778 777 776 775 774 772 772 771 770 769 768 767 766 764 763 762 761 760 759 758 757 756 755 754 753 752 751 749 749 749 748 747 747
819 818 817 816 815 814 813 812 810 809 808 807 806 804 803 802 801 800 798 797 796 794 793 792 791 790 788 787 786 785 783 782 781 780 778 777 776 775 774 772 772 770 769 768 768 767 766 765 763 762 761 759 758 757 757 756 755 753 752 751 750 749 747 747 746 746 746 745 744
818 817 816 815 814 813 812 810 809 808 807 805 804 803 802 800 799 798 797 796 794 793 792 790 789 788 787 786 784 783 782 780 779 778 776 775 774 773 772 770 769 768 767 766 765 765 764 762 761 760 758 757 756 754 754 753 752 751 749 748 747 746 745 744 743 743 743 742 741
817 816 815 814 813 812 810 809 808 807 805 804 802 801 800 799 797 796 795 794 792 791 790 789 787 786 785 783 782 781 780 778 777 776 774 773 772 771 769 768 767 766 765 764 763 762 761 760 759 757 756 755 753 752 751 750 749 747 747 745 744 743 742 741 741 740 740 739 739
816 815 813 812 811 810 809 808 807 805 804 802 801 800 798 797 796 795 793 792 791 789 788 787 785 784 782 781 780 779 778 776 775 774 772 771 770 768 767 766 764 763 762 761 760 759 758 757 756 755 754 752 751 749 747 747 745 744 743 742 741 740 739 738 738 737 737 736 736
814 813 812 811 810 808 807 806 805 803 802 801 799 798 797 796 794 793 792 790 789 788 786 785 783 782 781 779 778 777 776 774 773 771 770 769 767 766 765 763 762 761 760 758 757 756 755 754 753 752 751 749 748 746 745 743 742 741 740 739 737 737 736 735 735 734 734 733 732
813 812 811 810 808 807 806 804 803 802 800 799 797 796 795 794 792 791 790 788 787 786 785 783 782 780 779 778 776 775 774 772 771 769 767 766 765 763 762 761 759 758 757 756 754 753 752 751 750 749 748 747 745 743 742 741 739 738 737 736 734 733 732 732 732 731 731 730 729
812 810 809 808 807 805 804 802 801 800 798 797 796 794 793 792 791 789 788 787 786 784 783 781 780 778 777 776 774 773 772 770 769 767 765 764 762 761 759 758 757 755 754 753 752 750 749 748 747 746 745 743 742 741 739 738 737 735 734 733 732 731 730 729 729 728 728 727 726
810 809 808 806 805 803 802 801 800 798 797 796 794 793 792 790 789 788 787 785 784 782 781 780 778 777 775 773 772 771 769 768 767 765 763 761 760 758 757 756 754 752 751 750 749 747 747 746 744 743 742 741 739 738 736 735 734 732 731 730 729 728 727 727 726 726 725 724 723
809 807 806 805 803 802 801 799 798 797 795 794 792 791 790 789 787 786 785 783 782 781 779 778 776 775 773 772 770 768 767 765 764 762 761 759 757 756 755 754 752 750 748 747 746 745 744 742 741 740 739 737 736 734 733 732 731 729 728 727 727 726 725 724 724 723 722 721 720
807 806 804 803 802 800 799 797 796 795 794 792 791 790 788 787 786 784 783 782 780 779 777 776 774 773 771 769 768 766 764 762 761 760 758 757 755 754 752 751 750 748 746 744 743 742 741 740 738 737 736 735 733 731 730 729 728 727 725 724 723 722 722 721 721 720 719 718 717
805 804 802 801 800 798 797 796 795 793 792 791 790 788 787 786 784 783 781 780 778 777 776 774 772 771 769 767 766 764 762 760 758 757 755 754 753 752 750 749 747 746 743 742 741 740 739 738 736 735 733 732 731 729 728 727 725 724 722 721 720 719 718 718 717 717 716 715 714
803 802 801 799 798 797 796 794 793 792 790 789 788 787 785 784 782 781 779 778 776 775 773 772 770 768 767 765 763 762 760 758 757 754 753 751 750 749 748 746 745 743 741 739 738 738 737 737 735 733 732 730 729 727 725 724 723 722 720 719 718 717 716 714 714 713 713 712 711
802 800 799 798 797 795 794 793 792 790 789 787 786 785 783 782 781 779 777 776 774 773 771 770 768 766 764 762 761 759 758 756 755 753 751 749 747 746 745 744 742 740 738 737 736 735 735 734 733 732 731 729 727 725 723 721 720 719 718 717 716 715 713 712 711 710 709 709 708
800 799 797 796 795 794 792 791 790 789 787 786 785 783 782 780 779 777 776 774 772 771 769 767 766 764 762 760 758 757 755 754 752 751 749 747 745 743 742 741 739 737 736 735 734 733 732 731 730 730 728 727 725 723 721 719 717 716 715 714 713 712 711 709 708 707 706 705 704
799 797 796 795 793 792 791 790 788 787 786 784 783 782 780 778 777 775 774 772 770 769 767 765 764 762 760 758 756 755 753 752 750 748 747 745 743 742 740 738 737 735 734 733 732 731 730 729 727 727 726 725 723 721 719 717 715 714 713 712 710 709 708 707 705 704 703 702 701
797 796 795 793 792 791 790 788 787 786 784 783 782 780 778 777 775 773 772 770 768 767 765 763 762 760 758 756 754 752 751 749 748 746 745 743 741 739 738 736 734 732 731 731 730 728 727 726 725 724 723 722 721 719 717 715 713 711 710 709 707 707 705 704 703 702 701 700 698
796 795 794 792 791 790 788 787 786 784 783 782 780 778 777 775 773 772 770 768 767 765 763 762 760 758 756 754 752 751 749 747 746 744 743 741 739 737 735 734 732 730 729 728 727 726 724 723 722 721 720 719 718 717 714 712 711 709 707 706 705 704 703 702 701 699 698 697 696
795 794 792 791 790 788 787 786 784 783 782 780 778 777 775 773 772 770 768 767 765 763 761 760 758 756 754 752 751 749 747 745 744 742 741 739 737 735 733 731 730 728 727 726 725 723 722 721 719 718 717 716 715 714 712 710 708 707 705 704 702 701 700 699 698 697 696 695 694
794 792 791 790 788 787 786 784 783 782 780 778 777 775 773 772 770 768 767 765 763 761 759 757 755 753 751 750 748 747 745 743 742 740 738 737 735 733 731 729 727 725 724 723 722 721 719 718 717 716 715 714 712 711 709 707 706 704 703 702 700 699 698 697 695 694 693 692 691
792 791 790 788 787 785 784 783 781 780 778 777 775 773 772 770 768 766 765 763 761 759 757 755 753 751 749 747 746 744 742 741 740 738 737 735 733 731 729 727 725 723 722 721 720 718 717 716 714 713 712 711 710 708 707 705 703 702 700 699 697 696 695 694 693 692 690 689 688
791 789 788 787 785 784 782 781 780 778 777 775 773 772 770 768 766 764 762 761 759 757 755 753 752 750 748 746 744 742 740 739 737 736 734 733 731 729 727 724 722 721 720 719 717 716 715 713 712 711 710 708 707 705 704 702 701 699 698 696 695 694 692 692 690 689 687 687 686
789 788 787 785 784 782 781 779 778 777 775 773 771 770 768 767 765 763 761 759 757 755 753 752 750 748 746 744 743 741 739 737 735 734 732 731 729 727 724 722 720 719 718 717 716 714 712 711 710 708 707 706 704 703 701 700 698 697 695 694 692 691 690 689 687 686 685 684 683
788 787 785 784 782 781 779 778 776 775 773 772 770 768 766 764 763 761 759 757 755 753 751 749 747 746 744 742 741 739 737 736 733 732 730 729 727 725 722 720 718 717 716 715 713 712 710 709 707 706 705 704 702 700 699 697 696 694 693 691 690 688 687 686 684 683 682 681 680
787 786 784 782 781 779 778 776 775 773 772 770 768 766 764 763 761 759 758 756 754 751 749 747 746 744 742 741 739 737 736 734 732 730 728 727 725 723 720 718 716 714 713 712 711 710 708 707 705 704 703 701 700 698 697 695 693 692 690 689 687 686 685 683 682 680 679 678 677
785 784 783 781 779 778 776 775 773 772 770 768 767 765 763 761 759 757 756 754 752 750 747 745 744 742 741 739 737 735 733 732 731 729 727 724 723 721 719 716 714 712 711 710 709 707 706 704 703 702 701 699 697 696 694 692 691 689 688 686 685 683 682 681 679 678 677 675 675
784 782 781 780 778 776 775 773 772 770 768 767 765 763 762 760 758 756 754 753 751 749 746 744 742 740 739 737 735 733 731 730 729 727 725 723 721 719 717 715 712 710 709 707 706 705 703 702 701 700 698 697 695 694 692 690 688 687 685 683 682 680 679 678 677 675 674 673 672
782 781 780 778 777 775 773 772 770 769 767 765 763 761 760 758 756 754 752 751 749 747 745 742 740 738 737 735 733 731 729 727 726 725 723 721 719 717 715 713 710 708 706 705 704 703 701 700 699 697 696 695 693 691 690 688 686 684 682 681 680 678 677 675 674 673 672 671 670
781 780 778 777 775 774 772 770 768 767 765 764 762 760 758 756 754 752 751 749 747 745 743 741 738 737 735 734 732 729 727 725 723 722 721 719 717 715 713 711 708 706 704 703 702 700 699 698 697 695 694 692 691 689 687 686 684 682 680 679 678 677 675 673 672 671 670 669 668